User: anonymous   Login
Location: Caltech
(34.1382°N, 118.1253°W)
Time: 01:32:56
(UTC-07:00)
Language:

AO-27 - Orbit

View from above orbital plane
View from above orbital plane
View from above satellite
View from above satellite

Ground track
Ground track

The orbit data is extracted from the following two-line orbital elements,

1 22825U 93061C   15243.84658904  .00000035  00000-0  30887-4 0  9995
2 22825  98.7151 194.0019 0009593  87.2627 325.7935 14.29899781143756
Epoch (UTC): 31 August 2015 20:19:05
Eccentricity: 0.0009593
inclination: 98.7151°
perigee height: 785 km
apogee height: 799 km
right ascension of ascending node: 194.0019°
argument of perigee: 87.2627°
revolutions per day: 14.29899781
mean anomaly at epoch: 325.7935°
orbit number at epoch: 14375

The dashed part of the orbit path shows where the satellite is in the earth's shadow,  

DLR